Eagle River, WI

1:44 AM CDT on August 27, 2016 (GMT -0500)
Eagle River Union

Weather History for KEGV - October, 2010

Change the Weather History Date:

Sunday, October 10, 2010

  Actual Average Record
Temperature  
Mean Temperature 56 °F -  
Max Temperature 73 °F 51 °F 75 °F (2011)
Min Temperature 40 °F 31 °F 24 °F (2000)
Degree Days  
Heating Degree Days 8    
Growing Degree Days 6 (Base 50)    
Moisture  
Dew Point 47 °F    
Average Humidity 76    
Maximum Humidity 100    
Minimum Humidity 43    
Precipitation  
Precipitation 0.00 in - - ()
Sea Level Pressure  
Sea Level Pressure 29.92 in    
Wind  
Wind Speed 1 mph (North)    
Max Wind Speed 7 mph    
Max Gust Speed -    
Visibility 9 miles    
Events      
Averages and records for this station are not official NWS values.
T = Trace of Precipitation, MM = Missing Value Source: NWS Daily Summary

Daily Weather History Graph

Daily Weather History Graph

Search for Another Location

Airport or City:

Trip Planner

Search our weather history database for the weather conditions in past years. The results will help you decide how hot, cold, wet, or windy it might be!

Date:

Astronomy

Oct. 10, 2010 Rise Set
Actual Time 7:07 AM CDT 6:20 PM CDT
Civil Twilight 6:37 AM CDT 6:50 PM CDT
Nautical Twilight 6:02 AM CDT 7:24 PM CDT
Astronomical Twilight 5:27 AM CDT 7:59 PM CDT
Moon 10:54 AM CDT (10/10) 7:47 PM CDT (10/10)
Length of Visible Light 12h 12m
Length of Day
11h 12m
Waxing Crescent, 12% of the Moon is Illuminated
Oct 10
Waxing Crescent
Oct 14
First Quarter
Oct 22
Full
Oct 30
Last Quarter
Nov 5
New

Hourly Weather History & Observations

Time (CDT) Temp. Dew Point Humidity Pressure Visibility Wind Dir Wind Speed Gust Speed Precip Events Conditions
12:15 AM 45.7 °F 45.9 °F 100% 29.98 in 10.0 mi Calm Calm - N/A   Clear
12:35 AM 44.2 °F 44.2 °F 100% 29.97 in 10.0 mi Calm Calm - N/A   Clear
12:55 AM 45.0 °F 45.1 °F 100% 29.97 in 10.0 mi Calm Calm - N/A   Clear
1:15 AM 44.6 °F 45.0 °F 100% 29.97 in 10.0 mi Calm Calm - N/A   Clear
1:35 AM 44.1 °F 44.1 °F 100% 29.97 in 10.0 mi Calm Calm - N/A   Clear
1:55 AM - - N/A% 29.97 in 3.0 mi Calm Calm - N/A   Clear
2:15 AM 43.7 °F 43.9 °F 100% 29.96 in 10.0 mi Calm Calm - N/A   Clear
2:35 AM 43.0 °F 43.2 °F 100% 29.97 in 10.0 mi Calm Calm - N/A   Clear
2:55 AM 42.4 °F 42.6 °F 100% 29.96 in 4.0 mi Calm Calm - N/A   Clear
3:15 AM 42.8 °F 42.8 °F 100% 29.96 in 10.0 mi Calm Calm - N/A   Clear
3:35 AM 42.3 °F 42.4 °F 100% 29.96 in 10.0 mi Calm Calm - N/A   Clear
3:55 AM 41.0 °F 41.2 °F 100% 29.96 in 5.0 mi Calm Calm - N/A   Clear
4:15 AM 42.3 °F 42.4 °F 100% 29.96 in 10.0 mi Calm Calm - N/A   Clear
4:35 AM 40.5 °F 40.6 °F 100% 29.96 in 1.2 mi Calm Calm - N/A   Mist
4:55 AM 41.4 °F 41.7 °F 100% 29.95 in 3.0 mi Calm Calm - N/A   Clear
5:15 AM 41.0 °F 41.2 °F 100% 29.95 in 10.0 mi Calm Calm - N/A   Clear
5:35 AM 40.6 °F 40.8 °F 100% 29.95 in 7.0 mi Calm Calm - N/A   Clear
5:55 AM 40.5 °F 40.6 °F 100% 29.95 in 5.0 mi Calm Calm - N/A   Clear
6:15 AM 41.2 °F 41.2 °F 100% 29.95 in 1.2 mi Calm Calm - N/A   Mist
6:35 AM - - N/A% 29.95 in 10.0 mi Calm Calm - N/A   Clear
6:55 AM 41.0 °F 41.2 °F 100% 29.95 in 10.0 mi Calm Calm - N/A   Clear
7:15 AM - - N/A% 29.95 in 10.0 mi Calm Calm - N/A   Clear
7:35 AM 40.3 °F 40.5 °F 100% 29.95 in 10.0 mi Calm Calm - N/A   Scattered Clouds
7:55 AM 41.4 °F 41.5 °F 100% 29.95 in 10.0 mi Calm Calm - N/A   Scattered Clouds
8:15 AM 42.3 °F 42.4 °F 100% 29.95 in 10.0 mi Calm Calm - N/A   Clear
8:35 AM 45.0 °F 45.1 °F 100% 29.95 in 10.0 mi Calm Calm - N/A   Clear
8:55 AM 48.7 °F 48.9 °F 100% 29.95 in 10.0 mi Calm Calm - N/A   Clear
9:15 AM 50.5 °F 50.7 °F 100% 29.95 in 10.0 mi Calm Calm - N/A   Clear
9:35 AM 52.2 °F 50.9 °F 95% 29.95 in 10.0 mi Calm Calm - N/A   Scattered Clouds
9:55 AM 54.5 °F 50.4 °F 86% 29.94 in 10.0 mi Calm Calm - N/A   Scattered Clouds
10:15 AM 57.6 °F 50.7 °F 78% 29.94 in 10.0 mi Calm Calm - N/A   Scattered Clouds
10:35 AM 60.1 °F 50.9 °F 72% 29.94 in 10.0 mi Calm Calm - N/A   Clear
10:55 AM 62.6 °F 51.6 °F 67% 29.94 in 10.0 mi Calm Calm - N/A   Clear
11:15 AM 65.1 °F 51.6 °F 62% 29.93 in 10.0 mi Calm Calm - N/A   Clear
11:35 AM 68.2 °F 50.7 °F 54% 29.92 in 10.0 mi East 3.5 mph - N/A   Clear
11:55 AM 69.6 °F 49.8 °F 49% 29.91 in 10.0 mi East 6.9 mph - N/A   Clear
12:15 PM 70.2 °F 50.5 °F 50% 29.91 in 10.0 mi ESE 3.5 mph - N/A   Scattered Clouds
12:35 PM 71.4 °F 50.4 °F 47% 29.91 in 10.0 mi Calm Calm - N/A   Clear
12:55 PM 70.5 °F 50.4 °F 49% 29.91 in 10.0 mi Calm Calm - N/A   Clear
1:15 PM 71.6 °F 51.4 °F 49% 29.90 in 10.0 mi WSW 5.8 mph - N/A   Scattered Clouds
1:35 PM 71.8 °F 51.3 °F 48% 29.89 in 10.0 mi WSW 3.5 mph - N/A   Clear
1:55 PM 71.8 °F 50.5 °F 47% 29.89 in 10.0 mi Calm Calm - N/A   Clear
2:15 PM 72.5 °F 50.2 °F 45% 29.88 in 10.0 mi Calm Calm - N/A   Clear
2:35 PM 73.6 °F 50.5 °F 44% 29.88 in 10.0 mi NNW 4.6 mph - N/A   Clear
2:55 PM 73.4 °F 51.1 °F 45% 29.87 in 10.0 mi North 4.6 mph - N/A   Clear
3:15 PM 73.4 °F 50.2 °F 44% 29.87 in 10.0 mi NNW 3.5 mph - N/A   Scattered Clouds
3:35 PM 73.6 °F 50.2 °F 44% 29.86 in 10.0 mi Calm Calm - N/A   Scattered Clouds
3:55 PM 73.4 °F 50.7 °F 45% 29.86 in 10.0 mi Calm Calm - N/A   Scattered Clouds
4:15 PM 73.9 °F 50.2 °F 43% 29.86 in 10.0 mi NW 4.6 mph - N/A   Clear
4:35 PM 73.0 °F 50.4 °F 45% 29.86 in 10.0 mi NNW 5.8 mph - N/A   Scattered Clouds
4:55 PM 72.3 °F 50.9 °F 47% 29.86 in 10.0 mi NNW 4.6 mph - N/A   Scattered Clouds
5:15 PM 70.9 °F 51.1 °F 49% 29.86 in 10.0 mi North 3.5 mph - N/A   Clear
5:35 PM 69.8 °F 50.4 °F 50% 29.86 in 10.0 mi North 3.5 mph - N/A   Scattered Clouds
5:55 PM 68.2 °F 50.2 °F 53% 29.86 in 10.0 mi North 3.5 mph - N/A   Scattered Clouds
6:15 PM 65.7 °F 50.9 °F 59% 29.86 in 10.0 mi Calm Calm - N/A   Clear
6:35 PM 63.0 °F 51.8 °F 67% 29.86 in 10.0 mi Calm Calm - N/A   Scattered Clouds
6:55 PM 60.1 °F 52.2 °F 75% 29.87 in 10.0 mi NNE 5.8 mph - N/A   Clear
7:15 PM 61.9 °F 50.0 °F 65% 29.87 in 10.0 mi NNE 4.6 mph - N/A   Clear
7:35 PM 60.6 °F 50.0 °F 68% 29.87 in 10.0 mi NNE 5.8 mph - N/A   Clear
7:55 PM 61.0 °F 49.3 °F 65% 29.88 in 10.0 mi NNE 8.1 mph - N/A   Clear
8:15 PM 59.2 °F 48.6 °F 68% 29.88 in 10.0 mi NNE 4.6 mph - N/A   Scattered Clouds
8:35 PM 59.9 °F 48.4 °F 66% 29.88 in 10.0 mi Calm Calm - N/A   Mostly Cloudy
8:55 PM 60.1 °F 48.2 °F 65% 29.88 in 10.0 mi Calm Calm - N/A   Scattered Clouds
9:15 PM 58.8 °F 48.2 °F 68% 29.88 in 10.0 mi NNE 3.5 mph - N/A   Clear
9:35 PM 55.8 °F 48.0 °F 75% 29.88 in 10.0 mi Calm Calm - N/A   Clear
9:55 PM 54.5 °F 48.0 °F 79% 29.89 in 10.0 mi Calm Calm - N/A   Clear
10:15 PM 53.4 °F 48.2 °F 82% 29.88 in 10.0 mi Calm Calm - N/A   Clear
10:35 PM 51.4 °F 49.6 °F 94% 29.88 in 10.0 mi Calm Calm - N/A   Clear
10:55 PM 50.7 °F 50.5 °F 99% 29.88 in 10.0 mi Calm Calm - N/A   Clear
11:15 PM 49.6 °F 49.3 °F 99% 29.89 in 10.0 mi NNE 4.6 mph - N/A   Scattered Clouds
11:35 PM 51.1 °F 51.1 °F 100% 29.88 in 10.0 mi NNE 3.5 mph - N/A   Scattered Clouds
11:55 PM 49.3 °F 49.5 °F 100% 29.88 in 10.0 mi Calm Calm - N/A   Scattered Clouds